When you browse on this site, cookies collect data to enhance your experience and personalize the content and advertising you see.
Visit our Privacy Policy to learn more. By continuing to use the site, you agree to this use of cookies and data.
  • In Slovakia
  • List of Countries
  • For 7 days
  • Water Temperature
  • Weather Map
  • Weather Widgets
  • user-avatar
    Login

    Hourly Weather Schepki

    Today, 19 August, Monday

    Time Temperature Precipitation Wind Pressure Humidity
    00:00 +16°C° 0 mm 2 mps 734 mmHg 89%
    01:00 +16°C° 0 mm 2 mps 734 mmHg 90%
    02:00 +16°C° 0 mm 3 mps 734 mmHg 89%
    03:00 +14°C° 0 mm 3 mps 734 mmHg 90%
    04:00 +14°C° 0 mm 3 mps 734 mmHg 90%
    05:00 +14°C° 0 mm 3 mps 734 mmHg 90%
    06:00 +17°C° 0 mm 3 mps 734 mmHg 87%
    07:00 +18°C° 0 mm 4 mps 734 mmHg 84%
    08:00 +20°C° 0 mm 4 mps 735 mmHg 80%
    09:00 +22°C° 0 mm 4 mps 735 mmHg 76%
    10:00 +23°C° 0 mm 4 mps 735 mmHg 73%
    11:00 +26°C° 0 mm 4 mps 735 mmHg 69%
    12:00 +26°C° 0.3 mm 5 mps 735 mmHg 68%
    13:00 +27°C° 0.3 mm 5 mps 735 mmHg 67%
    14:00 +28°C° 0.3 mm 5 mps 736 mmHg 66%
    15:00 +27°C° 0.3 mm 4 mps 736 mmHg 68%
    16:00 +27°C° 0.3 mm 4 mps 736 mmHg 70%
    17:00 +27°C° 0.3 mm 3 mps 736 mmHg 73%
    18:00 +26°C° 0 mm 3 mps 736 mmHg 78%
    19:00 +24°C° 0 mm 2 mps 736 mmHg 84%
    20:00 +21°C° 0 mm 2 mps 736 mmHg 90%
    21:00 +21°C° 0.5 mm 2 mps 736 mmHg 90%
    22:00 +21°C° 0.5 mm 1 mps 737 mmHg 91%
    23:00 +21°C° 0.5 mm 1 mps 737 mmHg 92%

    Tomorrow, 20 August, Tuesday

    Time Temperature Precipitation Wind Pressure Humidity
    00:00 +21°C° 2.6 mm 1 mps 737 mmHg 94%
    01:00 +20°C° 2.6 mm 1 mps 737 mmHg 96%
    02:00 +19°C° 2.6 mm 2 mps 737 mmHg 97%
    03:00 +20°C° 0.1 mm 1 mps 737 mmHg 97%
    04:00 +20°C° 0.1 mm 1 mps 737 mmHg 96%
    05:00 +20°C° 0.1 mm 1 mps 737 mmHg 95%
    06:00 +21°C° 0.2 mm 1 mps 738 mmHg 93%
    07:00 +21°C° 0.2 mm 1 mps 738 mmHg 90%
    08:00 +20°C° 0.2 mm 0 mps 738 mmHg 88%
    09:00 +23°C° 0.4 mm 1 mps 739 mmHg 85%
    10:00 +24°C° 0.4 mm 1 mps 739 mmHg 81%
    11:00 +25°C° 0.4 mm 1 mps 739 mmHg 78%
    12:00 +25°C° 1.3 mm 1 mps 739 mmHg 76%
    13:00 +26°C° 1.3 mm 2 mps 739 mmHg 75%
    14:00 +26°C° 1.3 mm 2 mps 739 mmHg 73%
    15:00 +26°C° 0.4 mm 2 mps 739 mmHg 75%
    16:00 +25°C° 0.4 mm 3 mps 739 mmHg 77%
    17:00 +25°C° 0.4 mm 3 mps 739 mmHg 79%
    18:00 +22°C° 0 mm 3 mps 740 mmHg 83%
    19:00 +21°C° 0 mm 2 mps 740 mmHg 88%
    20:00 +20°C° 0 mm 2 mps 740 mmHg 93%
    21:00 +19°C° 0 mm 2 mps 740 mmHg 93%
    22:00 +18°C° 0 mm 2 mps 740 mmHg 94%
    23:00 +18°C° 0 mm 2 mps 740 mmHg 94%

    Day after tomorrow, 21 August, Wednesday

    Time Temperature Precipitation Wind Pressure Humidity
    00:00 +18°C° 0 mm 2 mps 740 mmHg 94%
    01:00 +17°C° 0 mm 2 mps 740 mmHg 94%
    02:00 +17°C° 0 mm 2 mps 740 mmHg 94%
    03:00 +17°C° 0 mm 2 mps 740 mmHg 94%
    04:00 +17°C° 0 mm 2 mps 739 mmHg 95%
    05:00 +16°C° 0 mm 2 mps 739 mmHg 95%
    06:00 +17°C° 0 mm 2 mps 739 mmHg 92%
    07:00 +19°C° 0 mm 1 mps 740 mmHg 90%
    08:00 +20°C° 0 mm 1 mps 740 mmHg 87%
    09:00 +22°C° 0 mm 1 mps 740 mmHg 82%
    10:00 +24°C° 0 mm 1 mps 740 mmHg 76%
    11:00 +25°C° 0 mm 1 mps 740 mmHg 70%
    12:00 +26°C° 0 mm 1 mps 740 mmHg 68%
    13:00 +26°C° 0 mm 1 mps 739 mmHg 66%
    14:00 +27°C° 0 mm 1 mps 739 mmHg 64%
    15:00 +26°C° 0.4 mm 1 mps 739 mmHg 70%
    16:00 +25°C° 0.4 mm 1 mps 739 mmHg 77%
    17:00 +23°C° 0.4 mm 1 mps 738 mmHg 84%
    18:00 +23°C° 0.4 mm 2 mps 738 mmHg 87%
    19:00 +21°C° 0.4 mm 2 mps 738 mmHg 90%
    20:00 +20°C° 0.4 mm 2 mps 738 mmHg 93%
    21:00 +20°C° 1 mm 2 mps 738 mmHg 94%
    22:00 +19°C° 1 mm 3 mps 739 mmHg 95%
    23:00 +19°C° 1 mm 3 mps 739 mmHg 96%

    22 August, Thursday

    Time Temperature Precipitation Wind Pressure Humidity
    00:00 +18°C° 0.2 mm 4 mps 739 mmHg 95%
    01:00 +16°C° 0.2 mm 5 mps 739 mmHg 95%
    02:00 +15°C° 0.2 mm 6 mps 739 mmHg 94%
    03:00 +15°C° 0 mm 6 mps 739 mmHg 94%
    04:00 +14°C° 0 mm 6 mps 740 mmHg 94%
    05:00 +14°C° 0 mm 6 mps 740 mmHg 93%
    06:00 +14°C° 0 mm 6 mps 740 mmHg 92%
    07:00 +14°C° 0 mm 6 mps 741 mmHg 91%
    08:00 +14°C° 0 mm 6 mps 741 mmHg 90%
    09:00 +15°C° 0 mm 6 mps 741 mmHg 86%
    10:00 +15°C° 0 mm 5 mps 741 mmHg 83%
    11:00 +16°C° 0 mm 5 mps 742 mmHg 79%
    12:00 +17°C° 0 mm 5 mps 742 mmHg 75%
    13:00 +20°C° 0 mm 5 mps 742 mmHg 70%
    14:00 +21°C° 0 mm 5 mps 742 mmHg 66%
    15:00 +20°C° 0 mm 4 mps 742 mmHg 68%
    16:00 +20°C° 0 mm 4 mps 742 mmHg 69%
    17:00 +20°C° 0 mm 3 mps 742 mmHg 71%
    18:00 +19°C° 0 mm 3 mps 742 mmHg 75%
    19:00 +17°C° 0 mm 3 mps 742 mmHg 80%
    20:00 +16°C° 0 mm 2 mps 742 mmHg 84%
    21:00 +15°C° 0 mm 2 mps 743 mmHg 86%
    22:00 +15°C° 0 mm 2 mps 743 mmHg 87%
    23:00 +14°C° 0 mm 2 mps 743 mmHg 88%

    23 August, Friday

    Time Temperature Precipitation Wind Pressure Humidity
    00:00 +13°C° 0 mm 2 mps 743 mmHg 88%
    01:00 +13°C° 0 mm 2 mps 743 mmHg 87%
    02:00 +12°C° 0 mm 2 mps 743 mmHg 86%
    03:00 +12°C° 0 mm 2 mps 743 mmHg 85%
    04:00 +12°C° 0 mm 2 mps 743 mmHg 85%
    05:00 +10°C° 0 mm 2 mps 743 mmHg 84%
    06:00 +13°C° 0 mm 2 mps 743 mmHg 81%
    07:00 +14°C° 0 mm 2 mps 743 mmHg 78%
    08:00 +15°C° 0 mm 2 mps 744 mmHg 75%
    09:00 +17°C° 0 mm 2 mps 744 mmHg 69%
    10:00 +18°C° 0 mm 2 mps 744 mmHg 64%
    11:00 +20°C° 0 mm 2 mps 744 mmHg 59%
    12:00 +20°C° 0 mm 2 mps 744 mmHg 57%
    13:00 +21°C° 0 mm 2 mps 744 mmHg 54%
    14:00 +21°C° 0 mm 2 mps 744 mmHg 52%
    15:00 +21°C° 0 mm 2 mps 744 mmHg 54%
    16:00 +21°C° 0 mm 2 mps 744 mmHg 56%
    17:00 +21°C° 0 mm 2 mps 744 mmHg 59%
    18:00 +19°C° 0 mm 2 mps 744 mmHg 64%
    19:00 +18°C° 0 mm 1 mps 744 mmHg 70%
    20:00 +15°C° 0 mm 1 mps 744 mmHg 75%
    21:00 +15°C° 0 mm 1 mps 744 mmHg 77%
    22:00 +14°C° 0 mm 1 mps 744 mmHg 78%
    23:00 +13°C° 0 mm 0 mps 744 mmHg 80%

    24 August, Saturday

    Time Temperature Precipitation Wind Pressure Humidity
    00:00 +13°C° 0 mm 1 mps 744 mmHg 81%
    01:00 +13°C° 0 mm 1 mps 744 mmHg 82%
    02:00 +13°C° 0 mm 1 mps 744 mmHg 83%
    03:00 +13°C° 0 mm 1 mps 744 mmHg 84%
    04:00 +12°C° 0 mm 1 mps 744 mmHg 84%
    05:00 +12°C° 0 mm 1 mps 744 mmHg 85%
    06:00 +14°C° 0 mm 1 mps 744 mmHg 81%
    07:00 +15°C° 0 mm 1 mps 744 mmHg 78%
    08:00 +18°C° 0 mm 1 mps 744 mmHg 74%
    09:00 +19°C° 0 mm 1 mps 744 mmHg 69%
    10:00 +20°C° 0 mm 1 mps 745 mmHg 64%
    11:00 +21°C° 0 mm 2 mps 745 mmHg 59%
    12:00 +21°C° 0 mm 2 mps 744 mmHg 57%
    13:00 +23°C° 0 mm 2 mps 744 mmHg 55%
    14:00 +23°C° 0 mm 2 mps 744 mmHg 53%
    15:00 +23°C° 0 mm 2 mps 744 mmHg 55%
    16:00 +23°C° 0 mm 2 mps 743 mmHg 58%
    17:00 +23°C° 0 mm 2 mps 743 mmHg 60%
    18:00 +20°C° 0 mm 2 mps 743 mmHg 65%
    19:00 +18°C° 0 mm 2 mps 743 mmHg 70%
    20:00 +16°C° 0 mm 2 mps 743 mmHg 75%
    21:00 +16°C° 0 mm 2 mps 743 mmHg 77%
    22:00 +15°C° 0 mm 2 mps 743 mmHg 79%
    23:00 +13°C° 0 mm 3 mps 743 mmHg 81%
    Show more